Dewpoint
46 46 46 46 46 46 46 47 47 47 47 46 45 45 45 45 45 46 47 47 46 46 46 46 46 46 47 47 48 49 51 47 45 43 41 41 48 52 53 54 54 54 55 52 49 45 42 36 35 35 31 30 33 26 38 32 35 30 19 13 10 7 8 12 7 9 16 8 7 10 8 6 6 10 10 15 14 14 14 14 15 15 20 23 23 44 46 48
46 46 46 46 46 46 45 45 47 47 47 45 45 45 45 45 45 45 46 46 46 46 46 46 46 45 46 46 47 49 50 45 43 42 40 46 52 55 54 54 54 53 53 49 46 42 34 33 37 36 28 25 38 28 32 31 32 21 20 14 7 10 9 11 10 12 10 9 8 6 7 6 7 6 10 12 13 12 12 13 15 14 14 17 30 45 48 49
46 46 45 45 45 45 45 46 46 46 46 46 45 45 46 45 45 45 45 45 45 45 45 45 44 45 46 46 47 49 47 43 39 35 38 50 54 53 52 54 55 53 50 48 46 42 37 38 38 32 32 23 28 26 29 29 26 20 16 8 7 17 14 10 9 19 9 11 8 8 12 6 6 6 16 10 8 13 11 12 14 12 15 18 27 44 46 49
46 45 45 45 45 45 45 46 46 46 46 47 44 45 45 45 45 45 45 46 46 45 45 46 46 44 45 45 47 50 44 39 26 36 41 52 52 51 52 54 55 53 48 47 46 43 41 40 36 31 29 25 28 31 24 28 15 26 15 8 10 12 10 12 9 11 15 8 8 8 14 8 7 7 14 12 9 14 11 12 12 14 15 20 26 41 45 49
45 46 46 46 45 45 45 45 45 46 46 46 46 44 45 45 45 45 45 45 45 45 45 46 47 46 43 44 47 46 41 8 20 39 44 51 50 48 51 53 54 49 48 46 46 42 41 38 34 31 28 23 27 22 23 26 28 24 14 9 9 10 11 11 11 12 16 17 8 8 9 11 17 11 11 12 9 11 19 12 13 19 17 21 26 41 45 48
46 45 46 45 44 45 45 45 44 45 46 46 46 45 45 45 46 46 45 45 44 44 44 47 47 49 44 45 46 43 29 -7 33 39 52 48 48 48 51 50 51 48 47 46 44 42 37 34 32 27 24 23 23 15 17 21 29 16 16 16 17 9 9 9 10 20 21 21 16 16 20 18 19 16 10 10 8 12 20 26 15 15 20 32 41 43 44 47
44 45 45 44 44 44 44 44 45 45 45 45 45 44 46 45 46 45 44 44 44 44 45 45 44 47 46 49 43 41 37 36 39 41 52 49 48 49 50 51 51 45 46 44 42 41 38 32 30 27 25 24 23 20 21 25 32 25 17 18 18 12 9 9 8 14 8 16 17 26 23 23 23 15 22 12 9 13 15 22 31 35 29 38 39 44 46 48
45 45 44 44 44 44 44 44 44 44 45 45 46 46 46 45 45 44 44 43 43 44 44 43 44 47 49 43 40 37 38 38 41 42 48 47 43 43 47 40 40 41 41 42 42 41 34 31 28 30 23 19 23 21 25 24 26 21 18 21 19 19 20 24 15 12 12 12 17 23 18 16 25 20 24 17 22 23 22 25 28 33 30 35 36 42 45 46
44 44 44 44 43 43 43 43 44 44 44 45 45 46 46 46 45 44 44 43 44 44 43 44 45 47 48 42 39 33 32 40 42 43 40 39 38 38 39 39 39 38 38 36 38 40 37 34 30 30 23 23 28 24 28 20 14 21 20 25 23 21 20 22 23 21 18 16 20 14 13 21 25 31 21 20 19 25 30 30 31 29 26 30 35 39 43 45
44 43 43 43 44 44 43 43 43 43 44 44 45 46 46 45 44 43 43 43 43 44 44 44 45 48 45 41 39 30 32 39 38 41 39 38 38 39 40 38 37 38 36 37 34 34 34 33 30 32 31 27 29 26 27 23 14 25 26 26 22 22 26 27 23 22 25 23 21 18 18 19 27 22 9 20 17 21 25 25 29 28 27 30 32 34 40 43
43 43 43 43 42 43 43 43 43 44 44 44 45 46 45 43 42 43 43 43 44 45 44 45 45 47 41 40 35 30 37 40 40 41 42 39 40 41 41 39 38 36 37 35 35 33 34 34 34 31 29 26 28 26 26 26 28 24 24 25 23 25 27 27 25 25 22 21 22 20 21 23 24 25 15 21 25 27 23 25 26 26 24 24 30 32 32 37
44 44 44 43 43 43 42 42 42 44 43 44 45 45 43 42 43 43 42 43 44 44 42 44 45 44 42 39 35 33 38 41 40 42 43 42 41 41 40 38 36 36 35 34 34 36 34 33 33 28 24 25 22 26 24 30 27 26 25 22 22 22 20 24 24 26 23 22 24 21 17 13 15 14 20 22 28 28 26 26 27 27 27 24 24 29 30 30
44 44 44 44 43 42 43 42 42 42 43 44 44 43 42 42 42 42 42 42 44 42 42 40 45 43 39 34 36 39 38 39 40 43 37 39 40 40 38 38 37 37 36 35 34 35 36 36 33 30 31 27 26 18 24 29 29 26 25 23 23 20 15 16 25 27 23 23 27 22 5 3 7 12 25 25 26 27 24 22 21 23 25 25 24 25 27 28
45 44 45 44 43 42 42 42 43 43 43 44 42 41 42 41 42 41 41 43 40 43 46 43 44 40 36 33 36 40 41 44 42 37 36 38 37 40 40 39 38 38 38 36 36 36 37 36 35 32 34 30 27 33 27 26 26 21 24 22 20 16 12 19 23 26 21 27 26 21 7 2 7 14 24 26 28 23 14 14 16 19 21 21 23 24 24 27
44 43 43 43 43 43 42 41 41 43 42 44 41 40 40 41 41 40 41 39 41 47 46 47 42 39 36 36 38 43 47 38 35 32 37 30 36 39 39 40 38 38 37 37 35 39 37 36 31 27 27 31 30 25 22 23 24 24 16 13 20 17 14 17 23 24 18 22 27 20 11 6 8 12 25 29 28 25 17 14 14 16 17 19 19 21 21 23
45 44 43 43 44 42 43 45 41 42 44 43 40 39 40 41 39 39 40 39 42 47 43 41 41 38 36 30 34 45 36 30 28 31 34 33 38 38 39 37 37 37 37 36 40 37 34 33 30 29 27 25 25 22 21 19 17 21 17 14 13 18 18 17 18 24 19 25 26 19 7 8 12 16 25 28 27 26 20 16 15 18 18 18 19 20 20 21
45 44 44 44 44 44 44 45 42 42 44 41 38 38 40 38 39 37 36 38 33 43 42 41 44 43 29 34 37 35 33 32 34 32 30 30 40 39 37 35 34 35 36 35 37 35 34 30 30 29 27 25 25 24 18 16 14 13 21 16 18 15 17 15 18 19 26 25 21 23 17 10 9 15 23 28 28 27 23 21 21 22 21 19 19 19 19 21
45 45 44 44 44 44 44 45 42 44 43 39 38 39 34 37 38 38 35 31 32 40 41 37 43 40 31 33 20 23 29 25 28 31 29 29 39 37 36 34 33 34 34 30 31 31 33 28 29 26 24 24 25 23 15 9 11 9 14 14 13 18 19 17 15 19 20 21 24 21 20 17 16 16 18 24 30 26 23 23 22 21 21 22 22 22 21 21
45 44 44 44 43 43 44 44 43 44 41 38 38 37 33 34 30 27 26 26 24 21 21 20 22 17 10 18 22 26 26 29 31 29 30 38 39 37 37 36 34 32 29 27 28 29 28 25 26 22 22 23 23 22 18 15 14 12 15 13 13 10 9 14 19 19 19 16 19 21 20 19 19 20 21 21 23 23 22 23 25 25 26 27 26 24 22 22
46 45 44 44 43 43 43 42 44 43 40 34 27 28 25 18 18 14 23 25 18 19 19 21 22 21 23 25 23 27 31 31 26 29 34 36 33 32 32 33 31 30 27 26 28 26 28 22 20 19 20 21 23 24 23 24 23 22 21 20 18 17 17 19 18 20 23 17 16 16 18 18 18 19 20 19 19 18 18 19 21 20 21 21 23 25 26 27
46 45 44 43 43 43 43 43 43 41 39 30 28 26 22 23 13 12 22 24 25 25 24 24 24 22 23 25 26 27 27 25 28 28 30 40 33 30 25 30 27 26 25 27 28 32 30 23 23 23 20 19 21 23 24 24 24 23 21 20 18 17 16 18 19 19 23 19 18 17 17 17 17 18 18 18 17 16 16 15 15 15 16 17 17 17 18 18
46 45 45 43 43 43 42 43 44 40 39 30 28 26 24 25 21 21 26 21 22 24 25 25 26 25 28 28 28 28 26 21 23 24 31 33 32 22 23 28 26 25 25 27 27 25 25 26 28 27 22 20 24 22 24 23 22 22 21 20 19 19 19 20 20 21 21 19 16 15 14 16 16 15 17 17 17 16 16 16 15 15 15 15 16 16 16 16
47 46 44 44 43 43 42 43 44 39 31 29 27 25 26 29 30 30 28 26 24 26 25 25 25 25 26 28 29 29 25 23 20 25 29 31 26 25 26 25 25 25 26 27 23 22 20 23 26 26 26 24 24 23 22 24 24 21 20 18 16 17 16 15 18 19 20 18 15 14 16 18 18 18 17 17 17 17 20 21 20 18 15 15 14 15 16 16
47 47 44 45 44 44 43 44 44 36 31 26 27 28 29 29 30 30 28 22 21 24 24 25 25 25 25 25 28 27 26 26 23 24 32 30 25 25 26 26 25 25 23 25 26 25 20 26 27 27 26 25 24 24 23 22 21 22 21 19 18 18 17 16 15 18 19 19 17 15 14 13 15 16 16 20 21 22 22 21 22 22 22 21 21 21 20 18
46 46 45 44 45 44 44 44 35 32 29 26 25 29 30 30 31 31 26 22 17 23 26 27 26 27 27 25 26 30 29 28 26 27 31 33 31 26 26 27 25 23 24 24 25 25 25 27 27 26 24 23 23 21 23 22 20 21 22 21 21 21 20 18 18 16 15 15 16 14 10 10 13 15 16 18 19 20 20 20 19 19 21 22 22 22 23 25
45 45 45 45 46 45 44 34 29 31 30 24 26 29 30 31 31 32 22 4 -0 11 25 23 29 25 30 24 16 19 28 28 31 30 36 35 36 27 30 25 27 22 23 25 25 25 24 25 26 24 23 23 22 21 20 22 19 18 17 22 22 21 21 21 19 18 15 14 18 16 12 10 17 17 14 14 17 19 17 19 19 19 20 20 22 23 23 24
45 45 45 44 45 45 36 30 32 31 26 26 28 32 32 31 31 32 20 -10 -10 10 20 28 24 24 19 19 13 18 5 13 27 34 34 35 23 37 16 18 26 29 26 24 23 21 26 26 24 24 23 23 22 21 22 22 20 16 18 21 22 21 21 21 21 19 17 19 21 19 17 12 12 17 18 18 17 17 18 18 18 18 17 18 19 21 21 22
44 44 44 45 45 45 38 33 32 31 29 30 32 33 32 31 31 27 3 -27 -28 13 13 24 27 29 15 18 17 6 8 8 12 32 30 26 32 28 24 23 22 23 27 25 16 26 27 25 26 25 23 23 22 23 24 23 21 19 21 21 20 20 20 21 21 20 20 19 16 19 18 15 14 18 16 16 14 11 16 17 17 16 16 15 16 18 19 20
45 45 45 44 45 44 36 32 31 31 31 31 32 32 32 30 24 8 -12 -24 -20 6 24 24 27 20 18 16 12 14 8 13 5 11 22 31 30 28 25 28 27 27 27 28 22 20 26 25 27 28 27 24 25 24 25 24 22 23 25 25 24 23 22 20 20 21 20 19 14 18 19 14 14 17 18 12 16 15 16 16 15 15 15 14 15 15 15 16
45 46 45 45 44 39 34 34 34 35 32 33 33 30 29 28 17 6 -23 -30 -6 -9 18 18 16 16 16 7 11 13 6 7 17 18 22 22 24 28 30 30 29 27 26 28 28 28 28 30 31 28 27 26 25 25 26 25 24 26 25 23 22 21 21 22 23 22 20 15 16 19 20 17 12 15 16 14 14 12 12 13 14 15 15 15 16 15 17 16
46 46 45 45 39 37 35 35 35 32 32 32 27 23 21 11 -1 -14 -23 -7 -9 1 12 11 8 16 7 3 5 13 4 9 9 14 8 17 11 19 20 9 20 17 20 20 19 19 19 21 21 24 28 27 26 25 25 26 26 25 23 23 24 23 23 21 18 20 14 11 17 20 19 18 13 13 18 14 13 11 12 13 14 12 12 14 15 17 17 17
47 46 45 45 43 40 36 34 34 33 32 29 23 16 13 -8 -4 -18 -11 8 -16 2 3 2 6 7 4 4 2 3 -1 5 9 9 7 6 5 6 5 1 -3 -1 -1 0 4 9 9 14 24 25 30 28 25 25 25 24 24 25 23 22 18 16 20 12 19 12 12 12 16 19 18 15 16 15 15 12 7 6 7 9 11 12 12 13 13 14 16 19
46 46 46 44 44 39 38 40 37 36 32 27 22 17 -3 -10 -18 -8 -8 -7 -10 0 -1 6 3 3 3 1 1 2 5 -1 13 12 10 8 8 9 13 10 4 6 -6 7 7 2 6 8 15 21 26 28 28 23 22 22 25 25 24 22 18 12 12 9 12 14 13 16 19 17 16 15 16 17 17 16 16 13 12 11 10 11 11 13 17 20 22 22
45 46 43 42 42 42 40 39 37 34 31 29 21 14 5 -10 -6 16 -10 -5 -8 3 7 5 5 3 2 3 -0 5 0 4 8 9 10 8 7 2 3 12 16 13 5 7 1 2 -8 -8 2 19 18 21 25 27 25 25 21 25 26 24 20 18 13 9 10 8 9 9 10 13 13 7 15 12 16 16 17 17 16 16 16 17 19 21 23 24 24 25
45 44 41 40 40 42 42 38 36 38 31 27 20 7 -2 -2 -7 -9 -5 -6 -3 4 3 4 1 2 3 1 4 7 4 -1 8 6 8 7 5 2 1 4 14 12 7 2 -0 3 6 -1 7 18 20 17 17 20 21 23 21 23 23 22 20 19 20 15 14 13 9 9 9 11 14 14 17 20 20 18 15 16 18 19 20 20 21 22 22 22 22 23
44 40 39 37 38 37 40 39 37 35 28 22 17 10 8 2 -7 -7 -4 6 6 2 3 5 -1 -1 -7 -4 -0 2 1 3 2 6 1 7 7 4 5 7 9 15 7 1 -3 -6 7 3 11 13 16 15 20 14 17 21 13 20 22 19 21 25 22 19 19 19 17 15 12 15 15 16 17 17 16 17 15 15 14 15 15 15 17 18 19 20 20 21
39 40 38 39 39 40 38 39 38 32 25 22 16 12 14 11 8 -1 18 4 4 5 2 -4 -1 1 -10 -7 -8 -1 5 4 1 3 -0 4 2 5 3 6 15 13 13 9 5 -2 -4 -1 4 8 6 9 21 14 15 15 16 14 11 15 22 24 23 20 12 15 14 11 10 16 13 11 11 10 15 15 14 12 11 12 12 12 13 14 17 19 19 20
40 39 38 36 37 38 38 38 35 31 27 22 17 22 15 11 15 9 14 9 9 7 3 2 1 3 -6 -7 -8 -0 3 5 -0 2 -3 3 -6 7 7 6 9 13 14 11 2 2 9 1 2 7 7 10 15 12 9 14 17 12 12 26 16 12 15 20 15 6 8 9 10 12 13 12 11 10 13 13 11 10 9 9 9 9 10 12 14 16 18 19
39 37 31 34 37 38 38 36 34 30 26 20 17 19 22 18 16 9 13 11 9 7 6 7 2 1 4 -4 -1 -4 1 4 1 -0 -5 -1 -1 2 3 8 2 12 12 13 7 11 8 -0 1 1 8 7 5 4 -1 -0 14 19 21 18 23 20 17 14 14 12 13 7 8 8 13 11 12 12 12 12 9 9 8 8 8 8 9 11 12 15 16 18
35 32 30 36 38 37 36 35 32 29 24 18 19 19 19 13 17 17 15 11 9 8 8 6 7 6 3 3 1 0 2 3 2 2 1 4 3 5 -0 7 4 14 15 13 11 11 7 4 -5 3 5 4 0 7 3 4 1 8 12 10 14 15 19 17 14 9 10 10 10 8 6 8 14 13 12 9 9 9 7 7 9 9 9 11 12 15 16 17
38 31 30 37 36 36 35 34 28 24 22 24 24 21 21 19 19 18 17 14 14 14 11 9 9 7 6 4 6 6 5 6 6 -1 -0 1 2 1 3 7 6 10 18 15 11 9 2 -1 -1 -0 -3 -4 2 9 9 10 12 7 5 6 9 10 6 5 4 16 14 11 8 9 6 14 13 13 10 10 9 9 8 7 7 8 8 11 13 14 16 17
32 25 28 36 36 36 33 25 26 27 24 21 20 23 21 25 21 21 19 18 17 15 17 16 15 14 12 10 10 8 8 7 7 5 2 4 3 6 5 4 5 14 16 14 14 13 10 -2 -1 -2 0 1 1 1 12 12 11 7 6 5 9 8 7 4 -1 1 8 6 12 6 6 6 16 12 11 9 8 7 6 7 7 7 6 9 12 13 15 16
31 28 34 36 35 34 31 25 27 26 23 23 25 24 24 22 21 22 20 20 17 18 16 16 16 15 15 14 14 13 11 9 9 7 7 6 6 6 5 5 7 15 15 13 12 12 21 1 -2 -2 -4 2 3 4 3 5 6 5 5 8 5 3 7 6 3 4 3 3 1 1 2 8 15 14 12 9 8 8 7 6 8 10 5 8 11 12 14 15
31 31 32 36 36 34 28 19 20 22 23 24 24 22 23 23 22 21 21 21 19 18 17 17 17 17 16 17 17 14 15 10 12 11 9 8 7 7 6 5 10 12 13 11 9 15 0 -1 1 -3 -12 -11 -6 -2 -5 1 2 -1 -0 6 6 6 4 7 8 7 6 4 2 -1 -4 1 19 16 14 12 15 9 8 6 5 8 5 7 10 12 14 15
30 31 31 34 35 34 25 25 23 21 20 20 21 21 23 23 23 23 22 21 22 21 20 19 18 17 17 18 17 17 16 13 10 13 11 10 8 8 7 6 7 8 12 14 19 14 7 0 -0 -6 -7 -10 -15 -18 -18 -10 4 2 2 7 6 6 6 8 5 8 3 4 4 1 -1 2 4 10 11 9 7 7 9 8 6 4 7 7 12 14 14 14
28 21 30 27 32 31 30 28 25 23 21 21 20 20 21 20 21 24 24 23 23 22 21 20 20 20 18 18 16 16 16 17 15 13 14 12 11 8 9 7 7 6 14 20 21 15 3 5 4 2 -1 -4 -4 -6 -5 8 -0 -2 -1 5 4 8 12 12 10 5 3 6 4 5 7 6 5 5 5 5 5 4 3 5 6 4 5 9 12 14 15 13
26 23 22 21 26 28 25 28 27 27 23 24 19 21 19 20 21 20 24 21 23 22 21 21 21 19 19 19 17 16 17 16 17 16 14 13 12 11 7 8 8 10 17 17 19 12 2 3 5 3 2 2 2 -3 -6 5 -2 -1 -3 1 2 7 9 11 8 3 8 2 -2 2 3 2 1 2 4 3 3 0 -2 1 4 4 7 10 13 13 18 11
20 25 25 26 21 18 19 21 26 24 25 25 21 24 21 21 21 19 23 23 23 26 21 22 23 21 19 18 18 15 16 15 15 14 16 15 14 10 10 8 6 13 16 13 17 12 6 3 6 6 4 4 3 2 1 -1 -4 -4 -6 -5 -5 2 6 6 5 5 1 -0 -4 -3 -3 -3 -3 -1 1 -1 -2 -2 1 5 4 5 6 11 13 11 11 11
27 26 26 27 22 22 22 22 23 22 21 21 21 21 20 20 19 19 18 18 20 20 23 15 17 17 19 20 19 16 15 10 10 15 14 14 15 14 10 10 9 7 11 11 15 15 8 4 5 6 5 5 5 4 3 -0 -1 -0 -0 -0 -1 -2 -1 1 1 0 0 -1 1 0 0 1 2 3 3 6 5 6 7 5 3 2 4 10 9 9 10 8
23 23 21 26 23 23 23 23 22 22 20 22 18 18 20 19 18 19 20 20 17 18 22 20 17 19 20 19 19 17 16 14 13 11 13 13 12 13 11 10 8 9 9 8 10 14 10 5 10 6 4 4 5 6 5 4 4 2 3 2 2 1 0 -0 -1 -0 1 0 1 2 2 2 3 3 3 5 6 8 6 3 1 1 4 4 7 9 7 5
28 27 26 21 19 20 21 20 18 18 16 17 16 16 18 18 17 18 17 20 17 17 17 17 18 18 18 16 15 14 17 17 18 18 19 18 14 16 13 11 14 8 8 9 10 8 12 8 9 8 4 4 6 5 4 4 3 2 1 1 1 1 0 1 1 1 0 -1 -1 -1 -1 -0 1 2 5 7 6 5 3 2 2 2 1 5 7 5 3 2
30 28 27 25 18 21 18 18 18 17 14 17 17 17 17 16 18 18 14 17 19 20 20 17 18 16 13 13 12 13 15 16 17 19 20 20 21 21 22 20 19 16 12 10 12 9 10 8 6 5 3 3 5 5 4 4 1 -1 0 1 1 1 0 0 0 2 2 0 -1 -2 -2 -1 0 4 4 3 4 3 3 2 1 1 3 4 4 3 2 3